When you browse on this site, cookies collect data to enhance your experience and personalize the content and advertising you see.
Visit our Privacy Policy to learn more. By continuing to use the site, you agree to this use of cookies and data.
  • In Deutschland
  • Länderverzeichnis
  • Für 7 Tage
  • Wassertemperatur
  • Satellitenkarten
  • Wetterkarte
  • Widgets
  • user-avatar
    Anmelden

    Stündliche Wetter Openki

    Heute, 18 November, Sonntag

    Zeit Temperatur Niederschläge Wind Luftdruck Luftfeuchtigkeit
    00:00 -2°C° 0.1 mm 2 m/S 770 mmHg 89%
    01:00 -2°C° 0 mm 2 m/S 769 mmHg 90%
    02:00 -2°C° 0 mm 2 m/S 769 mmHg 90%
    03:00 -2°C° 0 mm 2 m/S 769 mmHg 91%
    04:00 -2°C° 0 mm 2 m/S 769 mmHg 91%
    05:00 0°C° 0 mm 1 m/S 768 mmHg 92%
    06:00 0°C° 0 mm 1 m/S 768 mmHg 92%
    07:00 0°C° 0 mm 1 m/S 768 mmHg 92%
    08:00 +1°C° 0 mm 1 m/S 768 mmHg 92%
    09:00 +1°C° 0 mm 1 m/S 768 mmHg 92%
    10:00 +2°C° 0 mm 1 m/S 768 mmHg 92%
    11:00 +2°C° 0 mm 1 m/S 768 mmHg 92%
    12:00 +3°C° 0 mm 1 m/S 768 mmHg 92%
    13:00 +3°C° 0 mm 1 m/S 767 mmHg 92%
    14:00 +3°C° 0 mm 1 m/S 767 mmHg 92%
    15:00 +3°C° 0 mm 1 m/S 767 mmHg 93%
    16:00 +3°C° 0 mm 1 m/S 767 mmHg 93%
    17:00 +3°C° 0 mm 1 m/S 767 mmHg 94%
    18:00 +3°C° 0 mm 1 m/S 767 mmHg 94%
    19:00 +3°C° 0 mm 1 m/S 767 mmHg 94%
    20:00 +2°C° 0 mm 2 m/S 767 mmHg 94%
    21:00 +2°C° 0 mm 2 m/S 767 mmHg 94%
    22:00 +2°C° 0 mm 2 m/S 767 mmHg 94%
    23:00 +2°C° 0 mm 2 m/S 767 mmHg 94%

    Morgen, 19 November, Montag

    Zeit Temperatur Niederschläge Wind Luftdruck Luftfeuchtigkeit
    00:00 +2°C° 0 mm 2 m/S 767 mmHg 94%
    01:00 +2°C° 0 mm 2 m/S 767 mmHg 94%
    02:00 +2°C° 0 mm 2 m/S 767 mmHg 94%
    03:00 +2°C° 0 mm 2 m/S 767 mmHg 94%
    04:00 +2°C° 0 mm 2 m/S 767 mmHg 94%
    05:00 +2°C° 0 mm 2 m/S 767 mmHg 94%
    06:00 +2°C° 0 mm 2 m/S 767 mmHg 94%
    07:00 +2°C° 0 mm 3 m/S 767 mmHg 94%
    08:00 +2°C° 0 mm 3 m/S 767 mmHg 93%
    09:00 +2°C° 0 mm 3 m/S 767 mmHg 93%
    10:00 +3°C° 0 mm 4 m/S 767 mmHg 90%
    11:00 +4°C° 0 mm 4 m/S 767 mmHg 88%
    12:00 +5°C° 0 mm 4 m/S 767 mmHg 86%
    13:00 +5°C° 0 mm 4 m/S 766 mmHg 84%
    14:00 +5°C° 0 mm 4 m/S 766 mmHg 83%
    15:00 +6°C° 0 mm 5 m/S 766 mmHg 81%
    16:00 +5°C° 0 mm 5 m/S 766 mmHg 82%
    17:00 +3°C° 0 mm 5 m/S 766 mmHg 82%
    18:00 +3°C° 0 mm 5 m/S 766 mmHg 82%
    19:00 +3°C° 0 mm 5 m/S 765 mmHg 83%
    20:00 +3°C° 0 mm 5 m/S 765 mmHg 83%
    21:00 +3°C° 0 mm 6 m/S 765 mmHg 83%
    22:00 +3°C° 0.2 mm 6 m/S 765 mmHg 84%
    23:00 +3°C° 0.2 mm 5 m/S 765 mmHg 84%

    übermorgen, 20 November, Dienstag

    Zeit Temperatur Niederschläge Wind Luftdruck Luftfeuchtigkeit
    00:00 +3°C° 0.2 mm 5 m/S 765 mmHg 84%
    01:00 +3°C° 0.3 mm 5 m/S 765 mmHg 85%
    02:00 +3°C° 0.3 mm 6 m/S 764 mmHg 85%
    03:00 +3°C° 0.3 mm 6 m/S 764 mmHg 85%
    04:00 +3°C° 1.2 mm 6 m/S 764 mmHg 86%
    05:00 +3°C° 1.2 mm 6 m/S 763 mmHg 88%
    06:00 +3°C° 1.2 mm 6 m/S 763 mmHg 89%
    07:00 +3°C° 1 mm 6 m/S 763 mmHg 89%
    08:00 +3°C° 1 mm 6 m/S 763 mmHg 90%
    09:00 +3°C° 1 mm 6 m/S 763 mmHg 91%
    10:00 +3°C° 0.7 mm 6 m/S 763 mmHg 91%
    11:00 +4°C° 0.7 mm 6 m/S 762 mmHg 91%
    12:00 +5°C° 0.7 mm 5 m/S 762 mmHg 91%
    13:00 +5°C° 0.1 mm 5 m/S 762 mmHg 90%
    14:00 +6°C° 0.1 mm 5 m/S 761 mmHg 90%
    15:00 +6°C° 0.1 mm 4 m/S 761 mmHg 90%
    16:00 +6°C° 0.1 mm 4 m/S 761 mmHg 91%
    17:00 +6°C° 0.1 mm 4 m/S 761 mmHg 91%
    18:00 +6°C° 0.1 mm 4 m/S 761 mmHg 92%
    19:00 +6°C° 0.4 mm 4 m/S 761 mmHg 92%
    20:00 +6°C° 0.4 mm 4 m/S 761 mmHg 91%
    21:00 +6°C° 0.4 mm 4 m/S 761 mmHg 90%
    22:00 +6°C° 0.3 mm 4 m/S 761 mmHg 89%
    23:00 +6°C° 0.3 mm 4 m/S 761 mmHg 88%

    21 November, Mittwoch

    Zeit Temperatur Niederschläge Wind Luftdruck Luftfeuchtigkeit
    00:00 +6°C° 0.3 mm 5 m/S 761 mmHg 87%
    01:00 +6°C° 0.1 mm 5 m/S 761 mmHg 88%
    02:00 +6°C° 0.1 mm 5 m/S 761 mmHg 89%
    03:00 +6°C° 0.1 mm 5 m/S 761 mmHg 90%
    04:00 +6°C° 0 mm 4 m/S 762 mmHg 90%
    05:00 +5°C° 0 mm 4 m/S 762 mmHg 91%
    06:00 +5°C° 0 mm 4 m/S 762 mmHg 92%
    07:00 +5°C° 0 mm 4 m/S 762 mmHg 91%
    08:00 +5°C° 0 mm 4 m/S 762 mmHg 90%
    09:00 +5°C° 0 mm 3 m/S 763 mmHg 90%
    10:00 +5°C° 0 mm 3 m/S 763 mmHg 87%
    11:00 +7°C° 0 mm 3 m/S 763 mmHg 84%
    12:00 +7°C° 0 mm 3 m/S 763 mmHg 80%
    13:00 +7°C° 0 mm 3 m/S 762 mmHg 80%
    14:00 +7°C° 0 mm 3 m/S 762 mmHg 79%
    15:00 +7°C° 0 mm 3 m/S 762 mmHg 79%
    16:00 +5°C° 0 mm 3 m/S 762 mmHg 81%
    17:00 +5°C° 0 mm 3 m/S 762 mmHg 82%
    18:00 +5°C° 0 mm 3 m/S 763 mmHg 84%
    19:00 +4°C° 0 mm 3 m/S 763 mmHg 84%
    20:00 +4°C° 0 mm 3 m/S 763 mmHg 84%
    21:00 +4°C° 0 mm 3 m/S 763 mmHg 84%
    22:00 +4°C° 0 mm 3 m/S 763 mmHg 84%
    23:00 +4°C° 0 mm 3 m/S 763 mmHg 83%

    22 November, Donnerstag

    Zeit Temperatur Niederschläge Wind Luftdruck Luftfeuchtigkeit
    00:00 +3°C° 0 mm 3 m/S 762 mmHg 83%
    01:00 +3°C° 0 mm 3 m/S 762 mmHg 81%
    02:00 +3°C° 0 mm 3 m/S 762 mmHg 80%
    03:00 +3°C° 0 mm 3 m/S 762 mmHg 79%
    04:00 +3°C° 0 mm 3 m/S 762 mmHg 77%
    05:00 +3°C° 0 mm 4 m/S 762 mmHg 75%
    06:00 +1°C° 0 mm 4 m/S 763 mmHg 73%
    07:00 +1°C° 0 mm 4 m/S 763 mmHg 70%
    08:00 +1°C° 0 mm 4 m/S 763 mmHg 68%
    09:00 +1°C° 0 mm 4 m/S 763 mmHg 65%
    10:00 +3°C° 0 mm 4 m/S 763 mmHg 62%
    11:00 +3°C° 0 mm 4 m/S 763 mmHg 59%
    12:00 +4°C° 0 mm 4 m/S 763 mmHg 57%
    13:00 +4°C° 0 mm 4 m/S 763 mmHg 56%
    14:00 +4°C° 0 mm 4 m/S 763 mmHg 56%
    15:00 +4°C° 0 mm 4 m/S 763 mmHg 56%
    16:00 +3°C° 0 mm 4 m/S 763 mmHg 61%
    17:00 +2°C° 0 mm 3 m/S 763 mmHg 65%
    18:00 +1°C° 0 mm 3 m/S 764 mmHg 69%
    19:00 +1°C° 0 mm 3 m/S 764 mmHg 71%
    20:00 0°C° 0 mm 3 m/S 764 mmHg 73%
    21:00 -1°C° 0 mm 3 m/S 764 mmHg 75%
    22:00 -1°C° 0 mm 3 m/S 765 mmHg 76%
    23:00 -1°C° 0 mm 3 m/S 765 mmHg 77%

    23 November, Freitag

    Zeit Temperatur Niederschläge Wind Luftdruck Luftfeuchtigkeit
    00:00 -2°C° 0 mm 3 m/S 765 mmHg 79%
    01:00 -2°C° 0 mm 3 m/S 765 mmHg 79%
    02:00 -2°C° 0 mm 3 m/S 765 mmHg 80%
    03:00 -3°C° 0 mm 2 m/S 765 mmHg 80%
    04:00 -3°C° 0 mm 2 m/S 766 mmHg 80%
    05:00 -3°C° 0 mm 2 m/S 766 mmHg 80%
    06:00 -3°C° 0 mm 2 m/S 766 mmHg 80%
    07:00 -3°C° 0 mm 2 m/S 767 mmHg 76%
    08:00 -2°C° 0 mm 3 m/S 767 mmHg 73%
    09:00 -2°C° 0 mm 3 m/S 767 mmHg 69%
    10:00 -1°C° 0 mm 3 m/S 768 mmHg 64%
    11:00 +1°C° 0 mm 3 m/S 768 mmHg 59%
    12:00 +2°C° 0 mm 3 m/S 768 mmHg 53%
    13:00 +2°C° 0 mm 3 m/S 768 mmHg 54%
    14:00 +2°C° 0 mm 3 m/S 768 mmHg 55%
    15:00 +2°C° 0 mm 3 m/S 768 mmHg 56%
    16:00 +1°C° 0 mm 3 m/S 768 mmHg 62%
    17:00 0°C° 0 mm 3 m/S 769 mmHg 68%
    18:00 -1°C° 0 mm 3 m/S 769 mmHg 74%
    19:00 -1°C° 0 mm 3 m/S 769 mmHg 75%
    20:00 -2°C° 0 mm 3 m/S 769 mmHg 77%
    21:00 -2°C° 0 mm 3 m/S 770 mmHg 78%
    22:00 -2°C° 0 mm 3 m/S 770 mmHg 78%
    23:00 -2°C° 0 mm 3 m/S 770 mmHg 78%
    Mehr zeigen